Weather History for Erwin, NC

Change the Weather History Date:

Sunday, March 10, 2013

  Actual Average Record
Temperature  
Mean Temperature 50 °F -  
Max Temperature 69 °F 61 °F 80 °F (1974)
Min Temperature 31 °F 36 °F 22 °F (1984)
Degree Days  
Heating Degree Days 16    
Moisture  
Dew Point 25 °F    
Average Humidity 46    
Maximum Humidity 99    
Minimum Humidity 13    
Precipitation  
Precipitation 0.00 in - - ()
Sea Level Pressure  
Sea Level Pressure 30.27 in    
Wind  
Wind Speed 2 mph (ESE)    
Max Wind Speed 10 mph    
Max Gust Speed -    
Visibility 10 miles    
Events      
Averages and records for this station are not official NWS values.
T = Trace of Precipitation, MM = Missing Value Source: NWS Daily Summary

Daily Weather History Graph

Daily Weather History Graph

Search for Another Location

Airport:

Trip Planner

Search our weather history database for the weather conditions in past years. The results will help you decide how hot, cold, wet, or windy it might be!

Date:

Astronomy

Mar. 10, 2013 Rise Set
Actual Time 7:32 AM EDT 7:18 PM EDT
Civil Twilight 7:06 AM EDT 7:43 PM EDT
Nautical Twilight 6:37 AM EDT 8:13 PM EDT
Astronomical Twilight 6:07 AM EDT 8:42 PM EDT
Moon 6:29 AM EDT (3/10) 6:24 PM EDT (3/10)
Length of Visible Light 12h 36m
Length of Day
11h 46m
Waning Crescent, 2% of the Moon is Illuminated
Mar 10
Waning Crescent
Mar 11
New
Mar 19
First Quarter
Mar 27
Full
Apr 3
Last Quarter

Hourly Weather History & Observations

Time (EDT) Temp. Windchill Dew Point Humidity Pressure Visibility Wind Dir Wind Speed Gust Speed Precip Events Conditions
12:15 AM 36.7 °F - 31.8 °F 83% 30.30 in 10.0 mi Calm Calm - N/A   Clear
12:35 AM 36.9 °F - 32.0 °F 83% 30.30 in 10.0 mi Calm Calm - N/A   Clear
12:55 AM 36.0 °F - 31.8 °F 85% 30.31 in 10.0 mi Calm Calm - N/A   Clear
1:15 AM 35.8 °F - 32.0 °F 86% 30.31 in 10.0 mi Calm Calm - N/A   Clear
1:35 AM 35.2 °F - 31.5 °F 86% 30.31 in 10.0 mi Calm Calm - N/A   Clear
1:55 AM 34.7 °F - 31.1 °F 87% 30.30 in 10.0 mi Calm Calm - N/A   Clear
3:15 AM 34.3 °F - 32.0 °F 91% 30.30 in 10.0 mi Calm Calm - N/A   Clear
3:35 AM 34.7 °F - 31.1 °F 87% 30.28 in 10.0 mi Calm Calm - N/A   Clear
3:55 AM 34.9 °F - 31.1 °F 86% 30.27 in 10.0 mi Calm Calm - N/A   Clear
4:15 AM 32.9 °F - 31.6 °F 95% 30.27 in 10.0 mi Calm Calm - N/A   Clear
4:35 AM 32.5 °F - 31.8 °F 97% 30.27 in 10.0 mi Calm Calm - N/A   Clear
4:55 AM 32.9 °F - 31.6 °F 95% 30.27 in 10.0 mi Calm Calm - N/A   Clear
5:15 AM 32.2 °F - 31.6 °F 98% 30.27 in 10.0 mi Calm Calm - N/A   Clear
5:35 AM 32.0 °F - 31.5 °F 98% 30.28 in 10.0 mi Calm Calm - N/A   Clear
5:55 AM 33.3 °F - 32.0 °F 95% 30.28 in 10.0 mi Calm Calm - N/A   Clear
6:15 AM 32.0 °F 28.7 °F 31.1 °F 96% 30.29 in 10.0 mi NW 3.5 mph - N/A   Clear
6:35 AM 31.6 °F - 30.9 °F 97% 30.30 in 10.0 mi Calm Calm - N/A   Clear
6:55 AM 32.0 °F - 31.1 °F 96% 30.30 in 10.0 mi Calm Calm - N/A   Clear
7:15 AM 32.4 °F - 32.0 °F 99% 30.30 in 10.0 mi Calm Calm - N/A   Clear
8:35 AM 34.3 °F - 32.4 °F 92% 30.30 in 10.0 mi Calm Calm - N/A   Clear
8:55 AM 38.3 °F - 35.1 °F 88% 30.31 in 10.0 mi Calm Calm - N/A   Clear
9:15 AM 44.6 °F - 32.2 °F 62% 30.31 in 10.0 mi Calm Calm - N/A   Clear
9:35 AM 46.4 °F - 32.9 °F 59% 30.31 in 10.0 mi Calm Calm - N/A   Clear
9:55 AM 49.1 °F - 31.6 °F 51% 30.31 in 10.0 mi Calm Calm - N/A   Clear
10:15 AM 51.4 °F - 31.3 °F 46% 30.32 in 10.0 mi Calm Calm - N/A   Clear
10:35 AM 53.1 °F - 28.8 °F 39% 30.32 in 10.0 mi Calm Calm - N/A   Clear
10:55 AM 54.5 °F - 27.5 °F 35% 30.33 in 10.0 mi Calm Calm - N/A   Clear
11:15 AM 55.8 °F - 27.1 °F 33% 30.33 in 10.0 mi Calm Calm - N/A   Clear
11:35 AM 59.0 °F - 28.2 °F 31% 30.33 in 10.0 mi Calm Calm - N/A   Clear
11:55 AM 59.2 °F - 24.6 °F 27% 30.32 in 10.0 mi East 5.8 mph - N/A   Clear
12:15 PM 60.8 °F - 23.5 °F 24% 30.31 in 10.0 mi SE 5.8 mph - N/A   Clear
12:35 PM 62.4 °F - 21.6 °F 21% 30.30 in 10.0 mi ENE 3.5 mph - N/A   Clear
12:55 PM 62.8 °F - 22.5 °F 21% 30.30 in 10.0 mi East 6.9 mph - N/A   Clear
1:15 PM 62.2 °F - 21.6 °F 21% 30.29 in 10.0 mi East 6.9 mph - N/A   Clear
1:35 PM 64.2 °F - 20.7 °F 19% 30.29 in 10.0 mi East 6.9 mph - N/A   Clear
1:55 PM 64.2 °F - 20.3 °F 19% 30.27 in 10.0 mi South 4.6 mph - N/A   Clear
2:15 PM 64.9 °F - 17.8 °F 16% 30.26 in 10.0 mi East 3.5 mph - N/A   Clear
2:35 PM 64.9 °F - 17.1 °F 16% 30.26 in 10.0 mi ESE 3.5 mph - N/A   Clear
2:55 PM 67.3 °F - 17.6 °F 15% 30.25 in 10.0 mi East 3.5 mph - N/A   Clear
3:15 PM 67.3 °F - 18.1 °F 15% 30.24 in 10.0 mi East 6.9 mph - N/A   Clear
3:35 PM 66.0 °F - 16.5 °F 15% 30.24 in 10.0 mi East 10.4 mph - N/A   Clear
3:55 PM 67.1 °F - 16.0 °F 14% 30.24 in 10.0 mi ESE 3.5 mph - N/A   Clear
4:15 PM 68.9 °F - 15.6 °F 13% 30.23 in 10.0 mi East 4.6 mph - N/A   Clear
4:35 PM 67.6 °F - 15.3 °F 13% 30.23 in 10.0 mi SE 5.8 mph - N/A   Clear
4:55 PM 66.2 °F - 14.7 °F 14% 30.23 in 10.0 mi SE 4.6 mph - N/A   Clear
5:15 PM 66.6 °F - 16.2 °F 14% 30.23 in 10.0 mi ESE 5.8 mph - N/A   Clear
5:35 PM 67.3 °F - 15.4 °F 14% 30.22 in 10.0 mi ESE 9.2 mph - N/A   Clear
5:55 PM 67.6 °F - 16.5 °F 14% 30.23 in 10.0 mi SSE 9.2 mph - N/A   Clear
6:15 PM 66.4 °F - 14.0 °F 13% 30.22 in 10.0 mi ESE 5.8 mph - N/A   Clear
6:35 PM 65.3 °F - 14.9 °F 14% 30.23 in 10.0 mi ESE 6.9 mph - N/A   Clear
6:55 PM 64.4 °F - 16.2 °F 16% 30.23 in 10.0 mi Calm Calm - N/A   Clear
7:15 PM 62.8 °F - 18.9 °F 18% 30.23 in 10.0 mi East 3.5 mph - N/A   Clear
7:35 PM 61.3 °F - 19.2 °F 20% 30.24 in 10.0 mi East 3.5 mph - N/A   Clear
7:55 PM 59.4 °F - 21.4 °F 23% 30.24 in 10.0 mi Calm Calm - N/A   Clear
8:15 PM 57.7 °F - 22.6 °F 26% 30.24 in 10.0 mi ENE 3.5 mph - N/A   Clear
8:35 PM 54.7 °F - 27.0 °F 34% 30.23 in 10.0 mi East 5.8 mph - N/A   Clear
8:55 PM 55.9 °F - 23.5 °F 29% 30.23 in 10.0 mi East 4.6 mph - N/A   Clear
9:15 PM 55.2 °F - 25.2 °F 31% 30.24 in 10.0 mi ESE 8.1 mph - N/A   Clear
9:35 PM 56.3 °F - 22.6 °F 27% 30.25 in 10.0 mi SSE 4.6 mph - N/A   Clear
9:55 PM 53.2 °F - 24.4 °F 33% 30.25 in 10.0 mi SSE 4.6 mph - N/A   Clear
10:15 PM 54.0 °F - 23.9 °F 31% 30.25 in 10.0 mi SE 4.6 mph - N/A   Clear
10:35 PM 54.3 °F - 22.3 °F 29% 30.26 in 10.0 mi SE 4.6 mph - N/A   Clear
10:55 PM 54.0 °F - 21.7 °F 29% 30.26 in 10.0 mi SSE 4.6 mph - N/A   Clear
11:15 PM 52.5 °F - 21.9 °F 30% 30.26 in 10.0 mi Calm Calm - N/A   Clear
11:35 PM 51.8 °F - 22.8 °F 32% 30.26 in 10.0 mi Calm Calm - N/A   Clear
11:55 PM 50.7 °F - 24.6 °F 36% 30.26 in 10.0 mi Calm Calm - N/A   Clear
12:15 AM 49.5 °F - 24.4 °F 38% 30.26 in 10.0 mi SE 3.5 mph - N/A   Clear
12:35 AM 50.7 °F - 23.4 °F 34% 30.25 in 10.0 mi SE 3.5 mph - N/A   Clear
12:55 AM 48.7 °F - 25.5 °F 40% 30.24 in 10.0 mi Calm Calm - N/A   Clear